Tracking 31027 objects as of 19-Jul-2025
HD Live streaming from Space Station
objects crossing your sky now

PEGASUS R/B

Track PEGASUS R/B now!
10-day predictions


NORAD ID: 41892
Int'l Code: 2016-078J
Perigee: 423.3 km
Apogee: 436.4 km
Inclination: 34.9 °
Period: 93.0 minutes
Semi major axis: 6800 km
RCS: Unknown
Launch date: December 15, 2016
Source: United States (US)
Launch site: Pegasus launched from Eastern Range Air Space (ERAS)

Note: This is a ROCKET BODY
Your satellite tracking list
Your tracking list is empty




NASA's NSSDC Master Catalog

Two Line Element Set (TLE):
1 41892U 16078J   25199.80953611  .00014147  00000-0  26293-3 0  9997
2 41892  34.9355 234.6476 0009684 285.5417  74.4235 15.47953242477618
Source of the keplerian elements: AFSPC